Regional Weather Roundup
Issued by NWS

Home | Current Version | Previous Version | Graphics & Text | Print | Product List | Glossary On
Versions: 1 2 3 4 5 6 7 8 9 10 11 12 13 14 15 16 17 18 19 20 21 22 23 24 25 26 27 28 29 30 31 32 33 34 35 36 37 38 39 40 41 42 43 44 45 46 47 48 49 50
735
ASUS43 KIND 192359
RWRIN

WEATHER ROUNDUP FOR INDIANA
NATIONAL WEATHER SERVICE INDIANAPOLIS IN
700 PM EST MON FEB 19 2018

NOTE: "FAIR" INDICATES FEW OR NO CLOUDS BELOW 12,000 FEET WITH NO
SIGNIFICANT WEATHER AND/OR OBSTRUCTIONS TO VISIBILITY.

* - STATION DOES NOT REPORT WEATHER SUCH AS PRECIPITATION OR FOG.

+ - STATION NOT QUALITY CONTROLLED BY THE NATIONAL WEATHER SERVICE.
    USE DATA WITH CAUTION...ESPECIALLY DEWPOINT AND RELATIVE
    HUMIDITY OBSERVATIONS.

INZ001>003-010>013-019-020-200100-
NORTHWEST INDIANA

CITY           SKY/WX    TMP DP  RH WIND       PRES   REMARKS
MONTICELLO +   RAIN      59  58  96 S16G23    29.93R
6HR MIN TEMP:  56; 6HR MAX TEMP:  60; 6HR PCP:  0.22;

RENSSELAER +   CLOUDY    59  54  82 S20G25    29.90S
VALPARAISO     LGT RAIN  58  56  93 S17G26    29.89S

$$

LMZ046-743>745-200100-
SOUTHERN LAKE MICHIGAN

STATION/POSITION TIME  TEMP    WIND        PRES    WAVE
                       AIR SEA DIR/SP/G            HT
                 (UTC) (F)     (DEG/KT/KT) (MB)    (FT)
BURNS HARBOR     2340   56     190/ 20/ 24 1011.5R
MICHIGAN CITY    2330   56     160/ 16/ 21   N/A

$$

INZ004-005-014>016-021>024-200100-
NORTH CENTRAL INDIANA

CITY           SKY/WX    TMP DP  RH WIND       PRES   REMARKS
ELKHART        RAIN      55  54  94 SW9       29.93R
GOSHEN         RAIN      57  55  93 SW17G26   29.94R FOG
6HR MIN TEMP:  51; 6HR MAX TEMP:  58; 6HR PCP:  0.58;

PERU/GRISSOM   LGT RAIN  61  61 100 S23G33    29.95R
6HR MIN TEMP:  56; 6HR MAX TEMP:  61; 6HR PCP:  0.18;

SOUTH BEND     HVY RAIN  55  54  96 S20       29.91S FOG
6HR MIN TEMP:  46; 6HR MAX TEMP:  56; 6HR PCP:  0.54;

WARSAW +       RAIN      55  55 100 SW5       29.96R

$$

INZ006>009-017-018-025>027-200100-
NORTHEAST INDIANA

CITY           SKY/WX    TMP DP  RH WIND       PRES   REMARKS
AUBURN +       LGT RAIN  59  55  88 SW8G23    29.97R
FORT WAYNE     LGT RAIN  60  56  86 SW18      29.97R
6HR MIN TEMP:  52; 6HR MAX TEMP:  61; 6HR PCP:  0.17;

KENDALLVILLE + RAIN      57  56  97 SW15G23   29.96R

$$

INZ028-029-035-036-043>045-051>053-200100-
WEST CENTRAL INDIANA

CITY           SKY/WX    TMP DP  RH WIND       PRES   REMARKS
GREENCASTLE +  LGT RAIN  57  55  94 CALM      30.00F
LAFAYETTE      LGT RAIN  60  59  96 S12G22    29.94R
6HR MIN TEMP:  58; 6HR MAX TEMP:  61; 6HR PCP:  0.25;

TERRE HAUTE    CLOUDY    60  57  89 SE7       29.97F
6HR MIN TEMP:  60; 6HR MAX TEMP:  64; 6HR PCP:  0.04;


$$

INZ030>032-037>040-046>048-054>057-064-065-200100-
CENTRAL INDIANA

CITY           SKY/WX    TMP DP  RH WIND       PRES   REMARKS
COLUMBUS       MOCLDY    66  50  55 S13G20    30.01S
GREENWOOD *+   CLOUDY    60 -47   1 CALM      30.01R
INDIANAPOLIS   CLOUDY    60  57  89 W6        30.00S
6HR MIN TEMP:  59; 6HR MAX TEMP:  64; 6HR PCP:  0.04;

-EAGLE CREEK   CLOUDY    60  56  86 S3        29.99S
6HR MIN TEMP:  59; 6HR MAX TEMP:  64; 6HR PCP:  0.03;

KOKOMO +       RAIN      61  57  87 SW20G26   29.98R
6HR MIN TEMP:  57; 6HR MAX TEMP:  62; 6HR PCP:  0.16;

MT COMFORT *+  CLOUDY    57  57 100 SE5       30.01S
SHELBYVILLE    CLOUDY    67  54  63 SW7       30.01R
6HR MIN TEMP:  64; 6HR MAX TEMP:  70; 6HR PCP: TRACE;


$$

INZ033-034-041-042-049-050-058-059-200100-
EAST CENTRAL INDIANA

CITY           SKY/WX    TMP DP  RH WIND       PRES   REMARKS
MUNCIE         CLOUDY    62  56  80 S8        30.00S
6HR MIN TEMP:  62; 6HR MAX TEMP:  65; 6HR PCP:  0.02;

RICHMOND +     FAIR      59  55  88 S12       30.04S

$$

INZ060-061-067>069-081>083-085>088-200100-
SOUTHWEST INDIANA

CITY           SKY/WX    TMP DP  RH WIND       PRES   REMARKS
EVANSVILLE     FAIR      70  54  56 S18G35    30.03R
6HR MIN TEMP:  67; 6HR MAX TEMP:  74;

HUNTINGBURG +  FAIR      68  55  63 S12       30.04R
6HR MIN TEMP:  68; 6HR MAX TEMP:  74;


$$

INZ062-063-066-070>080-084-089>092-200100-
SOUTH CENTRAL AND SOUTHEAST INDIANA

CITY           SKY/WX    TMP DP  RH WIND       PRES   REMARKS
BLOOMINGTON    CLOUDY    69  54  58 S10       30.00R
6HR MIN TEMP:  63; 6HR MAX TEMP:  71; 6HR PCP: TRACE;

FRENCH LICK *+ FAIR      68  46  45 S12G17    30.04R
MADISON *+     FAIR      68  52  56 S9        30.08S
SEYMOUR +      FAIR      70  54  56 S14G22    30.03

$$





USA.gov is the U.S. government's official web portal to all federal, state and local government web resources and services.